GFSSE_250_rhum_273.txt.gz
RH
58 52 81 100 100 73 36 40 31 30 52 49 43 92 94 68 46 53 37 51 47 37 30 23 18 16 24 53 79 75 66 51 39 37 29 27 41 44 38 21 16 30 40
78 62 90 100 100 87 35 37 41 44 51 59 56 70 69 100 96 85 61 66 68 49 47 46 34 30 21 24 25 24 26 24 19 18 19 16 15 13 13 15 21 25 20
68 83 99 100 100 97 48 40 64 64 88 64 63 73 69 100 100 100 100 88 86 67 59 52 41 45 32 33 31 22 21 19 17 18 18 17 16 17 17 18 22 25 24
66 90 91 97 94 100 96 42 66 96 100 96 83 100 93 91 74 92 100 100 100 93 70 61 59 47 50 43 44 44 42 46 30 21 21 23 22 23 23 28 26 20 24
59 88 98 82 65 67 82 89 66 56 92 100 100 100 100 100 100 100 99 100 94 100 95 81 68 62 54 44 36 45 52 47 60 43 42 50 45 39 44 57 43 27 24
93 90 100 88 71 59 60 75 90 90 100 100 100 100 98 100 100 100 100 100 84 70 100 100 94 85 55 55 48 37 83 50 33 79 43 42 61 78 92 54 62 71 94
99 91 96 88 68 61 77 96 100 100 100 64 90 71 100 100 100 100 100 100 83 93 98 100 100 100 100 86 100 60 88 99 84 100 100 100 57 55 51 61 75 62 77
84 84 78 72 64 65 81 99 94 90 94 100 100 100 100 100 100 100 100 97 100 100 93 98 100 80 63 98 100 100 100 100 100 69 89 79 42 39 93 71 60 53 65
63 71 90 82 85 81 87 79 78 77 69 75 58 79 65 62 79 81 91 86 62 68 86 100 100 95 98 67 46 85 87 74 77 53 49 98 52 43 100 43 38 43 68
56 88 88 90 74 74 60 80 92 88 82 60 57 44 41 33 44 46 61 64 61 58 53 68 80 98 97 92 63 81 95 100 100 100 94 100 98 58 62 42 34 35 37
66 70 89 92 84 73 80 89 100 100 74 74 83 69 55 40 35 30 41 44 51 54 50 44 34 28 37 48 94 93 100 100 100 83 83 100 100 81 90 57 50 36 47
67 65 53 68 100 100 100 93 95 100 100 100 100 97 100 100 95 90 48 28 36 34 30 29 35 23 22 19 25 52 66 84 76 64 57 79 99 37 54 92 73 27 39
36 46 98 99 100 100 100 100 100 100 99 100 100 100 100 100 100 99 86 99 95 48 30 22 34 28 31 20 20 26 35 34 48 57 51 51 67 55 44 38 69 35 40
27 33 87 100 100 100 100 100 100 100 100 100 100 100 100 100 100 100 100 100 100 100 97 86 59 47 28 30 28 22 29 32 41 42 51 58 79 99 58 49 56 74 39
17 15 17 52 93 100 100 100 100 99 100 100 100 100 100 100 100 100 100 100 100 100 100 100 100 94 96 96 85 64 59 78 66 40 59 52 59 76 87 59 48 87 44
13 13 13 19 38 38 27 51 97 100 100 100 100 100 100 100 99 98 96 94 88 93 97 98 94 88 76 83 76 60 78 84 88 83 63 50 53 82 70 100 97 82 93
14 15 15 16 19 20 24 33 80 100 100 95 78 81 79 79 81 74 69 71 75 84 82 65 54 43 40 41 37 38 38 38 38 37 37 39 64 70 85 87 100 100 100
13 13 14 16 19 24 30 29 43 81 89 75 68 57 55 61 56 69 68 68 66 55 47 36 32 28 24 22 22 22 24 27 31 36 40 38 36 73 69 61 74 68 99
12 13 16 18 18 31 25 46 50 54 67 72 80 100 100 100 100 79 56 50 38 32 29 27 27 28 25 23 23 21 21 22 23 24 26 31 35 48 52 54 52 56 81
13 15 15 17 19 23 34 49 100 100 100 100 100 100 93 80 64 50 43 38 40 38 37 37 35 31 31 30 29 29 28 28 28 27 28 28 29 27 30 40 52 65 84
15 15 15 18 20 23 32 44 57 69 77 73 67 62 59 68 57 50 51 47 45 43 43 38 37 39 38 35 35 31 30 30 31 29 28 30 29 29 29 29 30 55 64
15 16 17 17 19 22 27 32 43 50 55 58 64 76 75 61 57 49 47 46 47 49 45 41 39 39 41 43 39 35 34 34 42 40 35 31 30 32 31 30 29 38 77
18 17 18 18 19 24 29 33 37 44 56 60 52 50 53 61 58 52 49 46 42 40 46 47 45 42 43 46 49 51 49 48 63 78 59 55 50 37 36 36 32 29 34
20 19 20 20 21 22 24 27 29 31 29 30 32 36 38 41 41 42 39 38 38 38 48 50 53 55 55 52 52 56 59 56 69 100 100 96 95 78 68 57 44 36 33
21 21 23 23 24 24 25 26 27 28 30 32 32 34 36 35 37 38 39 39 41 44 46 52 58 62 65 58 58 58 59 56 62 88 100 95 83 81 69 69 78 73 45
23 22 23 22 24 24 25 25 28 30 32 34 36 37 37 37 38 40 43 45 43 45 48 54 63 62 63 68 64 60 59 59 59 69 94 100 100 99 86 72 59 59 67

GFSSE_250_rhum_276.txt.gz
RH
36 46 51 72 100 96 100 87 37 40 41 42 46 52 57 60 99 97 82 55 62 54 29 29 36 38 25 27 43 70 68 76 76 68 57 48 51 46 52 74 84 77 71
41 54 56 90 93 88 100 98 44 36 59 62 51 57 50 97 72 100 100 100 84 66 43 39 41 41 31 25 26 33 38 39 44 46 37 32 28 22 18 20 22 22 31
40 56 66 84 99 84 100 100 93 54 56 96 100 94 70 100 100 100 81 93 100 92 68 54 47 44 46 31 31 29 24 20 26 19 14 33 34 19 16 16 16 15 16
47 54 65 96 100 100 91 90 88 88 58 75 84 100 100 100 100 99 100 100 99 100 99 83 78 58 49 46 38 33 29 24 26 27 40 38 43 33 18 18 18 26 27
79 71 84 89 100 100 94 74 70 72 77 73 74 100 100 100 98 100 100 100 100 100 100 100 100 83 65 48 40 32 32 29 28 24 47 39 25 30 30 29 39 53 49
96 98 100 79 66 87 83 91 88 95 100 100 100 100 73 87 100 87 100 100 100 100 100 100 96 100 100 93 80 61 50 41 41 61 45 69 65 37 51 69 65 45 44
69 63 62 66 66 72 86 96 93 96 100 90 100 100 100 100 100 82 100 100 100 100 100 100 94 77 74 99 100 100 100 92 100 100 90 100 93 60 41 38 40 44 45
47 60 70 74 60 45 62 92 75 52 58 76 83 85 84 98 95 98 96 98 96 95 94 100 100 98 88 97 98 82 87 100 91 93 100 100 100 93 51 37 100 54 45
46 57 81 83 72 58 68 66 72 84 72 54 41 59 54 44 36 41 58 61 61 71 69 77 98 81 96 100 100 100 100 100 87 79 100 100 100 100 68 42 100 45 22
27 39 42 52 59 42 28 39 42 63 61 72 54 43 36 45 58 37 31 30 37 40 35 36 66 68 64 78 74 90 100 100 91 100 100 100 100 87 76 83 90 62 26
28 30 49 59 36 40 27 51 76 100 94 79 67 92 92 53 69 79 61 79 67 40 30 67 94 65 62 45 43 42 43 57 82 100 100 100 100 99 100 100 87 80 28
20 18 20 15 40 71 97 100 100 100 76 100 98 100 84 94 100 100 100 100 82 100 59 54 69 46 27 38 33 27 32 30 34 74 95 100 100 98 78 100 98 67 66
16 12 12 14 17 80 100 100 93 98 87 88 75 95 100 100 100 100 100 96 97 100 98 100 100 85 58 49 66 63 24 19 16 19 30 72 85 85 67 66 100 64 51
18 13 12 14 15 18 93 100 100 100 100 100 100 100 100 100 99 87 87 100 100 100 100 100 98 92 94 98 82 55 51 45 28 35 33 21 39 61 61 59 62 67 42
14 12 12 14 14 19 50 84 90 100 100 100 100 100 100 100 100 100 100 100 100 100 92 98 100 100 100 100 100 97 95 63 47 37 34 28 30 46 50 54 62 58 39
11 10 13 14 14 15 16 19 19 21 38 83 100 100 100 99 100 100 100 100 97 88 83 86 79 74 83 90 95 94 96 100 100 97 92 80 54 68 58 50 50 52 73
10 10 12 12 15 15 16 19 25 23 30 66 99 100 90 89 79 72 62 53 58 65 56 54 51 53 52 46 46 56 55 54 62 52 45 46 69 70 52 67 63 47 43
10 11 11 12 14 16 17 20 33 25 28 41 51 64 58 75 93 100 100 99 78 67 58 47 41 36 34 32 29 30 28 27 25 23 22 21 22 30 34 38 40 45 47
13 12 13 14 13 16 17 21 26 30 38 51 88 100 91 71 83 80 72 75 59 53 45 38 33 30 30 28 27 26 24 23 25 21 23 21 25 20 21 27 30 35 34
14 13 13 13 15 17 17 20 23 30 36 35 44 45 50 52 67 70 48 48 45 40 36 34 32 36 35 28 27 27 24 24 27 27 27 28 25 25 26 26 25 27 31
16 15 16 18 18 19 19 21 23 26 32 35 35 38 41 63 43 43 41 39 40 43 42 40 37 32 31 31 28 26 25 28 28 31 32 30 28 26 27 28 28 29 29
26 16 17 19 20 21 21 22 22 23 24 27 30 32 35 36 36 35 36 37 37 38 39 39 37 36 36 38 39 38 28 28 32 37 36 38 38 33 36 36 36 32 31
46 28 20 20 19 21 23 24 26 28 28 29 30 32 32 31 32 34 35 35 35 35 36 36 37 38 39 39 44 48 46 34 31 38 44 43 46 50 51 48 56 41 35
52 38 33 27 21 20 19 20 24 29 30 32 33 34 33 34 35 34 34 35 37 36 38 40 40 41 43 44 49 55 62 59 51 49 41 46 51 53 81 82 73 79 63
47 64 42 34 37 29 22 20 21 22 24 26 29 30 35 34 33 37 40 40 38 38 38 41 43 44 46 49 53 58 62 66 60 57 64 55 54 51 72 98 100 95 84
54 60 57 42 40 38 41 42 32 24 23 25 26 27 30 32 36 35 36 36 36 36 39 42 43 48 48 45 48 55 59 67 62 65 63 70 65 62 53 72 92 99 97

GFSSE_250_rhum_279.txt.gz
RH
21 35 45 49 83 100 92 87 99 100 66 41 44 52 44 61 69 89 100 100 100 98 77 40 21 21 20 19 26 54 69 63 46 59 63 60 60 58 54 53 54 57 65
21 36 46 59 63 100 100 99 99 100 83 64 62 82 100 100 98 100 100 100 100 100 99 66 42 43 30 22 23 26 34 56 60 52 49 50 49 49 44 35 30 26 50
20 37 51 78 83 99 100 100 100 100 100 99 96 100 91 89 85 98 95 95 100 100 100 100 81 64 57 31 26 24 23 19 18 18 21 21 27 30 28 26 23 17 17
22 35 72 67 100 99 93 100 100 100 99 88 86 90 100 89 84 79 85 64 94 91 98 100 100 90 83 62 37 33 31 26 24 28 30 66 80 42 50 52 23 17 17
24 28 40 66 60 63 74 90 100 100 100 100 100 100 100 100 100 96 76 82 60 72 76 75 94 100 100 99 80 61 40 36 35 29 33 90 95 100 55 33 24 21 26
22 29 24 36 59 74 68 70 69 75 100 100 98 100 100 100 100 100 100 90 98 80 74 100 91 100 99 93 100 100 91 67 53 56 64 46 100 100 91 60 48 50 58
15 16 22 38 40 51 48 34 37 45 66 56 54 51 82 96 91 100 100 100 100 100 100 95 100 100 100 100 100 83 96 100 88 82 100 99 99 98 100 68 60 61 46
16 14 24 28 37 54 50 37 28 23 34 36 38 46 46 35 55 67 66 71 86 98 100 99 99 100 100 100 100 97 88 87 100 100 100 96 89 96 100 86 63 55 49
18 17 18 27 41 24 21 19 28 26 40 39 58 55 49 42 40 37 29 57 39 47 62 54 47 60 60 96 98 90 86 99 100 100 100 100 66 52 100 42 58 56 80
21 21 20 26 43 15 14 22 45 30 25 56 77 64 49 37 46 42 48 42 53 50 54 75 64 37 43 55 60 66 71 95 95 96 100 100 100 96 97 62 85 54 70
22 17 19 17 16 12 13 22 29 49 63 63 96 56 68 86 94 80 66 96 87 85 91 96 84 99 56 45 99 77 45 38 66 63 66 81 100 100 100 96 100 97 68
25 21 12 11 11 12 12 14 24 73 56 47 55 89 99 99 98 100 100 94 82 83 87 88 52 100 92 44 87 96 59 48 42 27 26 44 66 77 100 100 100 100 100
27 15 10 9 10 11 13 14 25 40 63 67 96 80 82 97 100 100 100 96 100 100 100 99 76 94 87 96 99 100 100 68 47 42 44 28 39 30 46 97 100 100 100
27 19 9 8 10 12 13 14 26 52 65 78 100 100 100 100 100 100 100 100 98 100 100 92 100 100 100 100 97 73 78 67 65 80 65 39 27 20 30 34 63 86 100
24 18 10 9 9 11 11 13 17 17 24 23 34 57 62 63 84 62 67 99 100 100 100 100 100 100 100 97 92 93 100 100 100 88 76 67 38 30 29 27 32 44 68
30 14 11 10 11 12 13 13 14 17 17 19 22 29 40 52 54 89 72 84 76 69 67 71 76 74 64 66 71 72 64 69 79 94 100 100 88 65 50 33 29 31 30
30 21 13 11 12 11 11 12 13 14 17 21 26 29 36 46 43 62 68 99 100 95 89 72 56 56 53 50 44 42 41 37 34 38 48 62 64 73 77 88 88 56 43
34 32 19 13 13 12 12 13 15 16 18 22 26 30 39 41 48 73 85 56 52 63 79 79 67 57 53 45 43 39 36 33 30 30 28 27 24 28 30 42 60 78 75
32 36 31 22 14 14 15 16 18 18 19 22 26 30 35 36 40 49 57 50 55 41 35 35 36 37 35 34 34 35 33 29 27 26 26 26 24 22 21 20 20 23 25
34 32 38 34 19 14 15 17 19 22 26 28 29 30 30 32 31 31 36 38 37 35 34 34 34 36 34 32 30 32 32 31 30 32 27 22 19 20 20 18 16 19 20
27 33 34 52 32 29 22 18 18 19 22 25 26 29 30 32 36 36 36 36 36 39 38 38 38 36 35 32 31 30 30 31 31 30 31 31 25 25 22 21 22 23 20
25 27 36 48 50 44 41 36 29 25 22 22 23 23 24 27 30 32 32 34 35 36 36 36 34 33 34 35 32 29 30 32 36 37 37 35 33 32 30 29 26 29 25
22 25 30 48 56 61 53 47 46 36 32 31 28 25 23 24 26 27 29 31 31 31 32 32 33 32 32 35 35 34 32 30 30 35 41 40 38 34 36 37 36 33 31
24 23 30 40 61 69 72 48 50 50 45 43 47 44 32 28 26 25 26 27 28 29 30 31 31 31 32 34 35 38 41 40 37 30 35 40 41 39 41 43 44 44 40
28 26 30 39 52 79 68 65 56 51 50 64 58 46 29 25 27 27 29 32 32 29 30 29 29 29 32 34 34 38 39 41 43 47 40 39 43 47 45 46 51 51 51
30 34 33 39 60 83 73 72 66 67 55 59 55 64 53 33 33 36 36 40 40 39 38 37 37 34 36 37 38 39 40 40 38 41 44 53 52 52 60 61 59 55 53

GFSSE_250_rhum_285.txt.gz
RH
31 28 18 16 16 15 19 32 47 54 68 96 98 76 73 98 98 100 98 100 86 86 86 68 81 82 100 84 32 38 26 33 50 45 49 54 60 58 65 73 85 100 100
33 27 22 17 18 22 21 30 45 46 47 52 73 95 98 100 100 99 100 100 85 67 92 86 89 38 38 96 87 68 39 25 30 56 73 70 70 62 60 66 60 65 88
34 28 24 20 20 23 22 22 32 39 36 34 47 74 87 100 100 100 100 100 100 92 78 74 94 83 84 72 88 100 82 60 23 28 51 70 89 100 100 100 84 58 49
38 30 26 23 19 22 24 22 24 32 32 42 52 79 100 100 100 100 100 100 100 100 100 98 78 65 50 90 82 95 92 88 54 33 27 35 41 41 35 41 54 59 69
42 34 32 24 18 22 14 14 15 18 20 41 79 89 90 100 100 100 100 100 100 100 100 100 92 94 74 61 88 88 100 100 100 96 53 29 29 32 58 90 100 92 82
43 35 30 24 19 13 12 11 11 11 16 26 78 100 100 100 90 92 88 98 100 98 94 100 100 87 92 70 50 78 86 100 90 94 100 74 47 43 75 100 100 99 79
46 36 30 26 20 13 10 10 12 11 13 19 40 56 89 62 70 85 90 90 97 100 100 100 97 98 82 93 89 76 77 84 85 96 98 100 100 74 66 83 92 80 100
52 41 31 24 20 12 12 9 10 12 12 14 20 35 58 63 44 63 95 90 81 93 88 64 50 83 92 100 100 100 100 100 100 99 88 94 99 100 97 100 100 98 100
54 42 32 21 18 17 13 9 8 9 12 15 22 24 28 33 53 80 82 76 64 59 75 72 61 45 61 82 93 79 76 85 81 95 100 100 100 92 100 100 100 100 100
60 44 30 25 24 22 13 9 9 9 9 12 16 26 30 35 52 60 61 52 49 40 40 47 50 44 72 85 79 87 85 71 66 96 87 86 100 100 100 100 100 100 100
66 50 32 27 26 21 13 12 11 8 8 10 12 15 26 30 38 46 69 69 75 48 54 47 85 56 56 56 63 72 78 59 56 68 69 98 95 99 100 100 100 100 100
75 50 31 28 27 21 14 11 10 9 8 8 10 14 17 26 37 45 56 67 75 100 92 91 71 100 100 100 91 76 68 83 68 76 58 75 62 70 92 100 100 88 86
77 59 31 29 27 34 14 12 9 9 9 9 10 10 13 14 19 34 44 51 88 83 85 85 100 91 69 70 84 84 81 74 55 80 79 60 41 42 35 40 60 71 71
79 65 34 29 29 27 25 15 11 10 10 9 11 12 14 16 17 20 27 35 41 42 52 60 62 58 62 69 65 57 63 85 84 83 73 82 92 92 70 60 35 32 35
88 71 39 26 27 32 35 24 29 20 14 12 11 12 12 15 18 21 23 24 29 32 42 56 60 56 49 59 63 62 63 66 73 74 66 59 52 61 72 90 100 75 60
88 77 46 25 25 28 31 24 37 46 40 32 22 18 15 15 16 17 19 22 23 24 26 30 38 52 45 44 41 37 35 35 35 36 35 34 35 38 39 42 46 58 72
94 79 59 38 28 29 29 38 31 46 65 59 57 47 46 36 32 25 24 24 26 27 27 28 29 30 29 30 30 26 27 26 27 28 28 26 27 28 32 33 35 37 41
95 81 65 46 35 28 32 33 36 44 53 77 89 69 47 40 33 34 34 34 32 27 24 23 24 25 26 28 29 30 32 32 31 28 26 25 26 26 25 26 28 28 30
90 88 70 47 36 31 30 35 47 46 44 51 62 84 73 69 60 54 49 39 31 32 30 28 27 27 26 26 26 25 26 29 31 30 29 27 26 27 26 26 26 25 25
91 93 70 47 38 37 37 38 39 38 45 44 61 77 78 79 57 42 50 44 41 28 25 26 27 30 30 31 31 33 30 28 26 26 28 28 28 28 29 28 25 26 27
92 89 65 41 37 40 32 42 40 41 52 52 60 77 60 51 44 48 53 53 47 40 30 30 30 32 32 32 34 32 30 30 30 28 27 27 28 30 30 27 27 28 30
90 90 62 41 35 40 41 42 36 39 39 44 48 71 52 78 46 50 47 48 49 46 33 34 34 34 38 40 42 41 39 33 32 34 31 28 29 28 28 30 31 32 33
90 81 81 59 54 36 35 28 30 27 38 46 72 80 86 77 73 67 54 52 58 61 39 36 37 36 34 37 39 43 46 45 40 34 33 31 30 29 29 30 33 38 41
81 78 80 100 65 49 34 33 25 27 33 60 69 84 89 95 81 63 54 48 60 65 58 33 35 39 39 38 36 40 43 44 40 33 32 30 29 30 31 29 30 33 36
75 87 73 72 96 67 58 45 32 28 30 46 43 61 89 97 84 72 64 62 61 77 71 41 33 38 41 46 43 41 43 44 45 37 29 27 28 26 30 34 33 32 32
61 82 93 95 74 64 77 61 47 28 29 42 38 56 82 97 75 78 68 64 62 84 75 51 39 35 39 43 44 47 47 48 48 44 38 30 27 26 25 28 30 32 32

GFSSE_250_rhum_288.txt.gz
RH
44 35 27 23 20 20 19 11 12 21 38 44 48 54 76 90 94 96 92 78 80 79 86 92 99 89 68 59 75 69 59 58 42 28 36 54 65 78 76 76 100 100 100
48 40 32 24 23 19 13 11 10 11 22 36 38 36 44 75 100 100 94 92 97 77 70 74 91 94 98 74 64 55 53 73 54 41 31 42 59 63 61 68 74 87 99
50 46 38 27 22 20 14 11 9 10 12 15 17 21 42 59 84 96 100 84 92 100 100 95 90 99 100 100 100 85 69 83 79 72 54 29 32 68 78 91 74 71 69
51 48 40 30 24 19 13 12 10 9 9 10 11 20 30 49 74 97 96 100 100 95 100 100 100 100 96 90 77 90 80 81 84 82 85 48 32 31 63 85 95 99 98
54 53 47 32 24 24 17 12 10 10 10 10 11 13 21 36 61 70 81 88 98 100 97 100 100 100 100 100 97 84 94 100 99 95 100 96 77 41 33 49 63 61 64
62 62 54 34 28 26 22 13 12 11 11 11 12 14 17 25 69 80 75 67 84 83 92 93 99 100 100 98 100 97 92 77 90 100 100 100 100 96 35 32 50 87 77
65 65 61 41 30 28 23 15 12 11 11 11 13 14 17 20 24 39 61 76 70 77 88 99 92 99 100 100 100 100 100 83 69 70 78 100 100 100 100 42 38 46 67
57 66 67 48 31 30 23 16 12 11 10 10 11 13 14 18 19 21 29 42 58 68 71 80 83 94 88 79 100 100 100 100 96 84 72 99 92 99 100 100 87 59 54
56 69 69 56 34 31 28 17 15 12 10 9 9 11 14 16 19 22 26 30 53 62 44 54 64 69 79 70 64 73 97 100 100 100 100 100 100 100 92 100 100 100 100
58 68 73 60 35 30 29 25 20 17 12 11 10 9 10 12 16 23 21 21 19 30 40 40 36 30 46 62 70 76 73 82 100 94 86 100 98 100 100 96 100 100 100
60 63 74 61 41 29 28 30 26 16 16 11 11 10 9 10 12 14 17 19 20 24 38 39 40 50 71 81 90 97 95 84 85 90 95 88 88 82 98 100 100 100 100
62 58 68 67 50 36 27 28 25 23 18 12 12 10 10 10 11 14 17 20 27 29 34 33 38 48 71 78 63 57 80 76 77 68 78 69 56 57 74 77 92 100 100
60 56 65 68 56 43 30 28 37 34 30 26 18 13 12 10 11 12 14 16 19 22 24 26 31 31 29 36 47 52 55 53 40 44 52 53 68 74 70 80 71 93 94
50 54 63 69 58 45 37 29 33 34 34 32 38 34 26 24 20 18 14 14 14 16 15 16 18 22 25 27 31 31 35 39 41 38 35 30 45 54 56 54 64 70 55
47 57 68 70 57 49 41 35 34 32 32 35 36 39 49 56 53 48 39 34 27 22 20 18 17 17 19 24 30 34 33 31 28 27 26 26 31 35 42 46 55 67 75
46 57 69 67 64 56 40 36 37 41 37 39 34 36 52 69 56 42 42 42 47 38 28 27 27 26 23 23 22 23 26 30 29 28 27 28 27 25 26 26 27 35 44
43 61 74 74 70 60 40 39 37 39 42 50 43 41 36 44 42 32 45 37 39 38 27 26 27 26 25 24 25 26 26 25 24 24 24 23 22 23 26 27 26 25 26
42 60 63 87 82 58 44 40 41 45 48 49 55 47 45 49 54 52 61 57 50 44 43 32 26 27 28 28 28 28 29 30 29 28 27 27 26 23 21 21 24 27 29
42 55 64 93 84 54 42 45 47 44 41 39 42 41 53 50 53 52 61 56 37 37 44 45 40 35 30 29 29 30 32 33 36 37 32 29 27 26 24 22 20 20 23
42 42 36 69 94 69 56 55 50 41 39 35 49 48 55 62 73 81 69 52 43 40 41 49 48 43 46 43 30 31 29 29 32 35 39 35 31 30 28 26 23 21 20
37 21 16 63 78 99 100 82 53 48 39 34 44 59 70 50 88 81 73 49 40 40 42 46 71 56 64 56 40 31 34 32 32 35 37 40 40 35 33 32 28 25 21
25 11 11 54 69 77 99 84 56 57 68 53 39 48 46 41 51 84 63 43 47 40 38 49 78 58 73 72 41 33 33 36 37 38 38 39 41 39 38 36 34 30 27
15 11 13 28 49 77 88 85 84 85 100 74 45 39 45 40 41 49 46 43 48 44 42 54 86 74 65 41 33 32 31 34 35 33 37 39 40 40 36 36 35 32 31
18 14 13 26 57 76 100 98 97 96 83 98 73 49 47 81 64 51 38 51 50 48 55 64 98 62 47 41 36 29 32 33 35 35 34 37 39 39 40 38 33 31 30
22 14 11 21 58 78 100 100 100 96 74 99 97 69 79 94 73 47 37 41 50 56 66 82 100 67 50 50 49 34 30 32 33 33 34 32 36 38 34 35 34 32 33
20 11 10 15 51 84 100 100 100 100 78 94 99 82 99 88 61 45 36 49 45 65 88 100 85 71 68 67 47 36 31 33 31 35 32 29 33 35 35 31 31 32 32